Location: Roanoke
(37.2710°N, 79.9420°W)
Time: 11:25:50
(UTC-04:00)

Daily predictions for brighter satellites

Satellite Brightness Start Highest point End
(mag) Time Altitude Azimuth Time Altitude Azimuth Time Altitude Azimuth
Meteor 2-1 Rocket 4.3 18:47:59 10° S 18:53:46 76° E 18:59:41 10° NNE
Cosmos 1269 Rocket 4.3 18:49:20 10° S 18:54:19 46° ESE 18:59:21 10° NNE
CZ-2C R/B 4.3 18:50:17 10° SSW 18:54:26 35° W 18:58:41 10° NNW
Aureole 2 Rocket 4.1 18:52:45 10° NNE 18:55:47 20° ENE 18:58:53 10° ESE
YAOGAN 1 2.8 18:52:28 10° SSE 18:56:37 49° ENE 19:00:48 10° N
Cosmos 1626 2.6 18:54:29 10° NNW 18:58:12 69° W 19:01:54 10° S
Iridium 4 Rocket 4.4 18:53:34 10° SSE 18:58:37 35° E 19:03:53 10° NNE
BREEZE-M DEB (TANK) 1.8 18:57:14 10° WSW 18:59:33 46° NW 19:01:33 10° NE
Cosmos 1315 Rocket 2.9 18:57:24 10° N 19:01:28 58° E 19:05:31 10° SSE
GRACE-1 4.2 18:59:23 10° SSE 19:01:47 36° E 19:04:11 10° NNE
Cosmos 1484 Rocket 3.0 18:59:54 10° S 19:03:36 71° W 19:07:19 10° NNW
Cosmos 44 Rocket 3.5 19:01:38 10° SW 19:06:19 73° WNW 19:11:02 10° NNE
Cosmos 1452 Rocket 3.6 19:01:34 10° NNW 19:06:51 84° WSW 19:12:06 10° SSE
Cosmos 2333 4.4 19:03:05 10° NNW 19:08:40 51° ENE 19:14:15 10° SE
Cosmos 1908 3.2 19:06:36 10° S 19:10:30 84° E 19:14:24 10° N
SPOT 3 Rocket 3.9 19:06:13 10° SE 19:11:06 44° ENE 19:16:03 10° N
PSLV R/B 3.1 19:09:15 10° WSW 19:12:22 72° SSE 19:15:01 13° ENE
Cosmos 2221 2.5 19:08:27 10° S 19:12:44 68° E 19:17:04 10° NNE
Cosmos 1703 3.9 19:09:36 10° NNW 19:13:28 60° W 19:17:17 10° S
Cosmos 2237 Rocket 3.5 19:10:17 10° N 19:14:27 20° NE 19:18:22 11° E
Cosmos 2237 4.3 19:09:04 10° NNW 19:14:49 90° NW 19:20:32 10° SSE
Cosmos 1821 Rocket 4.2 19:10:30 10° SSE 19:16:24 50° E 19:22:25 10° NNE
Delta 2 Rocket 3.6 19:12:25 10° W 19:16:27 55° SSW 19:19:54 11° ESE
Cosmos 921 Rocket 3.4 19:14:13 10° NNW 19:18:36 70° WSW 19:22:54 10° S
Cosmos 2227 Rocket 3.1 19:15:04 10° SSE 19:19:45 27° ESE 19:24:28 10° NE
H-2A R/B 4.4 19:20:16 14° E 19:21:18 16° ENE 19:23:41 10° NNE
Cosmos 2098 Rocket 3.5 19:21:25 10° S 19:26:00 64° E 19:31:53 10° NNE
SKYMED 2 3.5 19:21:55 10° NNE 19:26:16 84° ESE 19:30:36 10° SSW
SL-16 R/B 4.1 19:25:57 10° NNE 19:27:32 11° NE 19:28:01 11° NE
Cosmos 1300 3.0 19:28:18 10° SSE 19:31:53 41° E 19:35:30 10° NNE
GP-B 4.4 19:28:52 10° NNW 19:33:06 44° W 19:37:18 10° SSW
Cosmos 2360 Rocket 3.8 19:28:42 10° NW 19:33:54 39° WSW 19:39:06 10° S
BREEZE-M DEB (TANK) 2.8 19:34:01 10° WNW 19:35:49 29° SW 19:37:56 10° SSE
Atlas Centaur 2 3.9 19:34:58 10° WSW 19:37:43 17° SSW 19:40:48 10° SSE
Gbstr 26 Del rocket 3.6 19:33:25 10° NW 19:38:27 70° NE 19:43:46 14° ESE
ALOS 2.3 19:34:13 10° SSE 19:38:46 57° ENE 19:43:21 10° N
Cosmos 1980 4.3 19:34:21 10° N 19:39:27 34° ENE 19:43:00 17° ESE
FENGYUN 3A 3.7 19:35:51 10° SSE 19:41:08 60° ENE 19:46:28 10° N
Meteor 2-10 3.9 19:38:01 10° S 19:42:56 58° E 19:47:58 10° NNE
SWAS 4.4 19:43:08 10° S 19:47:19 61° ESE 19:50:51 14° NNE
Cosmos 2251 Rocket 3.9 19:44:15 10° S 19:49:09 41° ESE 19:54:08 10° NNE
Cosmos 2123 Rocket 4.1 19:44:02 10° N 19:50:08 53° E 19:56:15 10° SSE
Cosmos 1605 Rocket 4.1 19:45:13 10° SSE 19:51:01 47° E 19:56:48 10° NNE
COSMOS 2428 3.1 19:46:04 10° NNW 19:51:42 66° WSW 19:57:19 10° S
Cosmos 2219 4.0 19:46:19 10° SW 19:51:55 53° WNW 19:57:32 10° NNE
Cosmos 2333 Rocket 2.2 19:48:47 10° NNW 19:54:31 66° ENE 20:00:14 10° SSE
Cosmos 2297 Rocket 2.4 19:51:15 10° S 19:56:38 48° ESE 20:00:57 16° NE
NOSS 0 Rocket 3.9 19:50:35 10° NNW 19:56:42 62° ENE 20:02:41 10° SE
Cosmos 1726 3.0 19:53:41 10° SSW 19:57:16 49° W 20:00:52 10° N
Hubble Space Telescope 2.4 19:56:16 10° SW 19:59:28 22° S 20:00:30 20° SSE
NOAA 12 4.3 19:59:29 10° S 20:04:47 74° WSW 20:10:07 10° NNW
USA 267 4.0 20:04:43 27° ESE 20:05:36 28° SE 20:11:03 10° S
Sich 1 3.0 20:01:50 10° N 20:06:14 89° W 20:10:39 10° S
Cosmos 2082 3.7 20:02:27 10° S 20:08:04 59° ESE 20:12:12 18° NNE
Thor Agena Rocket 3.4 20:07:30 10° NNE 20:12:37 88° ESE 20:17:38 10° SSW
Cosmos 1331 Rocket 3.8 20:08:25 10° NNW 20:13:38 72° ENE 20:16:38 25° SSE
Cosmos 2219 Rocket 2.6 20:14:28 10° NNW 20:20:00 62° WSW 20:25:32 10° S
FengYun 1-2 T 4.1 20:20:28 10° SSE 20:25:57 88° ENE 20:31:28 10° NNW
Cosmos 1447 Rocket 4.5 20:21:07 10° N 20:27:20 57° E 20:29:04 43° SE
BREEZE-M DEB (TANK) 3.8 20:21:52 10° WNW 20:29:18 34° N 20:29:58 33° NNE
CZ-4C R/B 4.1 20:25:01 10° W 20:29:23 25° NW 20:34:14 10° NNE
Cosmos 2228 Rocket 3.1 20:28:19 10° S 20:32:51 85° W 20:34:24 42° N
Cosmos 1328 Rocket 3.9 20:30:18 10° SSW 20:34:40 64° W 20:39:01 10° N
Cosmos 1633 Rocket 4.0 20:33:41 10° NNW 20:37:56 48° W 20:42:11 10° SSW
BREEZE-M R/B 4.3 20:37:30 10° W 20:39:11 28° WNW 20:39:11 28° WNW
Cosmos 1302 Rocket 4.2 20:38:35 10° NNW 20:42:54 59° N 20:42:54 59° N
Meteor 1-27 4.2 20:41:33 10° S 20:47:16 85° W 20:53:06 10° N
H-2A R/B 4.4 20:55:29 33° W 20:55:29 33° W 20:58:49 10° NNW
Cosmos 2237 Rocket 2.7 20:53:19 10° NNW 20:58:52 56° WSW 21:00:17 44° SSW
MOS 1-B Rocket 3.9 21:03:12 77° NW 21:03:12 77° NW 21:09:02 10° NNW
Cosmos 2227 Rocket 3.5 20:58:23 10° SW 21:03:35 37° WNW 21:08:05 14° N
SL-16 R/B 3.4 21:06:55 10° NNW 21:09:55 32° NNW 21:09:55 32° NNW
Cosmos 2297 Rocket 4.3 21:36:30 10° WSW 21:40:54 23° WNW 21:42:52 19° NNW
